EN

Hourly Weather Lagoa Vermelha

Today, 25 July, Sunday

Time Temperature Precipitation Wind Pressure Humidity
00:00 +13°C° 0 mm 2 mps 694 mmHg 70%
01:00 +13°C° 0 mm 2 mps 694 mmHg 71%
02:00 +13°C° 0 mm 2 mps 694 mmHg 73%
03:00 +12°C° 0 mm 2 mps 693 mmHg 75%
04:00 +12°C° 0 mm 2 mps 693 mmHg 76%
05:00 +12°C° 0 mm 2 mps 693 mmHg 78%
06:00 +10°C° 0 mm 2 mps 692 mmHg 79%
07:00 +13°C° 0 mm 2 mps 693 mmHg 74%
08:00 +13°C° 0 mm 3 mps 693 mmHg 69%
09:00 +16°C° 0 mm 3 mps 694 mmHg 63%
10:00 +18°C° 0 mm 3 mps 694 mmHg 57%
11:00 +20°C° 0 mm 4 mps 694 mmHg 50%
12:00 +22°C° 0 mm 4 mps 694 mmHg 43%
13:00 +23°C° 0 mm 4 mps 694 mmHg 44%
14:00 +25°C° 0 mm 4 mps 693 mmHg 44%
15:00 +25°C° 0 mm 4 mps 693 mmHg 45%
16:00 +22°C° 0 mm 3 mps 693 mmHg 52%
17:00 +20°C° 0 mm 2 mps 692 mmHg 59%
18:00 +19°C° 0 mm 1 mps 692 mmHg 66%
19:00 +19°C° 0 mm 1 mps 692 mmHg 67%
20:00 +17°C° 0 mm 2 mps 693 mmHg 69%
21:00 +17°C° 0 mm 2 mps 693 mmHg 70%
22:00 +16°C° 0 mm 2 mps 693 mmHg 71%
23:00 +16°C° 0 mm 2 mps 693 mmHg 72%

Tomorrow, 26 July, Monday

Time Temperature Precipitation Wind Pressure Humidity
00:00 +16°C° 0 mm 2 mps 693 mmHg 73%
01:00 +16°C° 0 mm 2 mps 693 mmHg 72%
02:00 +16°C° 0 mm 2 mps 692 mmHg 71%
03:00 +15°C° 0 mm 2 mps 692 mmHg 71%
04:00 +15°C° 0 mm 2 mps 692 mmHg 71%
05:00 +15°C° 0 mm 2 mps 692 mmHg 71%
06:00 +14°C° 0 mm 2 mps 691 mmHg 71%
07:00 +16°C° 0 mm 2 mps 692 mmHg 67%
08:00 +17°C° 0 mm 2 mps 692 mmHg 64%
09:00 +18°C° 0 mm 3 mps 692 mmHg 60%
10:00 +20°C° 0 mm 3 mps 692 mmHg 55%
11:00 +22°C° 0 mm 4 mps 692 mmHg 49%
12:00 +25°C° 0 mm 4 mps 692 mmHg 43%
13:00 +25°C° 0 mm 4 mps 692 mmHg 43%
14:00 +25°C° 0 mm 3 mps 691 mmHg 43%
15:00 +26°C° 0 mm 3 mps 691 mmHg 44%
16:00 +24°C° 0.1 mm 2 mps 691 mmHg 53%
17:00 +21°C° 0.1 mm 2 mps 690 mmHg 62%
18:00 +19°C° 0.1 mm 2 mps 690 mmHg 71%
19:00 +19°C° 0 mm 1 mps 690 mmHg 71%
20:00 +19°C° 0 mm 1 mps 691 mmHg 72%
21:00 +19°C° 0 mm 1 mps 691 mmHg 72%
22:00 +18°C° 0.1 mm 1 mps 691 mmHg 73%
23:00 +18°C° 0.1 mm 1 mps 690 mmHg 74%

Day after tomorrow, 27 July, Tuesday

Time Temperature Precipitation Wind Pressure Humidity
00:00 +16°C° 0.1 mm 1 mps 690 mmHg 76%
01:00 +16°C° 0.2 mm 1 mps 690 mmHg 80%
02:00 +16°C° 0.2 mm 1 mps 690 mmHg 85%
03:00 +15°C° 0.2 mm 1 mps 690 mmHg 90%
04:00 +15°C° 0.2 mm 1 mps 690 mmHg 93%
05:00 +14°C° 0.2 mm 1 mps 691 mmHg 95%
06:00 +14°C° 0.2 mm 1 mps 691 mmHg 98%
07:00 +14°C° 0.4 mm 1 mps 691 mmHg 97%
08:00 +14°C° 0.4 mm 2 mps 691 mmHg 97%
09:00 +14°C° 0.4 mm 2 mps 691 mmHg 96%
10:00 +12°C° 3.9 mm 3 mps 691 mmHg 96%
11:00 +10°C° 3.9 mm 4 mps 691 mmHg 96%
12:00 +8°C° 3.9 mm 4 mps 691 mmHg 96%
13:00 +7°C° 1 mm 4 mps 691 mmHg 94%
14:00 +7°C° 1 mm 4 mps 691 mmHg 93%
15:00 +6°C° 1 mm 4 mps 691 mmHg 92%
16:00 +7°C° 0 mm 3 mps 692 mmHg 90%
17:00 +7°C° 0 mm 3 mps 692 mmHg 88%
18:00 +7°C° 0 mm 2 mps 693 mmHg 85%
19:00 +6°C° 0 mm 2 mps 693 mmHg 86%
20:00 +5°C° 0 mm 2 mps 694 mmHg 86%
21:00 +4°C° 0 mm 2 mps 694 mmHg 87%
22:00 +3°C° 0 mm 2 mps 694 mmHg 87%
23:00 +2°C° 0 mm 2 mps 694 mmHg 87%

28 July, Wednesday

Time Temperature Precipitation Wind Pressure Humidity
00:00 +1°C° 0 mm 2 mps 694 mmHg 87%
01:00 -1°C° 0 mm 2 mps 694 mmHg 88%
02:00 -1°C° 0 mm 2 mps 694 mmHg 89%
03:00 0°C° 0 mm 1 mps 694 mmHg 90%
04:00 0°C° 0 mm 1 mps 694 mmHg 89%
05:00 -1°C° 0 mm 1 mps 694 mmHg 89%
06:00 -1°C° 0 mm 1 mps 694 mmHg 88%
07:00 -2°C° 0 mm 2 mps 695 mmHg 81%
08:00 -1°C° 0 mm 2 mps 695 mmHg 74%
09:00 0°C° 0 mm 3 mps 695 mmHg 67%
10:00 +2°C° 0 mm 3 mps 695 mmHg 59%
11:00 +3°C° 0 mm 4 mps 695 mmHg 50%
12:00 +5°C° 0 mm 4 mps 695 mmHg 42%
13:00 +5°C° 0 mm 5 mps 695 mmHg 42%
14:00 +6°C° 0 mm 5 mps 695 mmHg 43%
15:00 +6°C° 0 mm 5 mps 694 mmHg 43%
16:00 +5°C° 0 mm 5 mps 694 mmHg 49%
17:00 +3°C° 0 mm 4 mps 695 mmHg 56%
18:00 +1°C° 0 mm 4 mps 695 mmHg 62%
19:00 0°C° 0 mm 4 mps 695 mmHg 69%
20:00 0°C° 0 mm 3 mps 696 mmHg 76%
21:00 0°C° 0 mm 3 mps 696 mmHg 84%
22:00 -1°C° 0 mm 3 mps 696 mmHg 88%
23:00 -1°C° 0 mm 3 mps 696 mmHg 92%

29 July, Thursday

Time Temperature Precipitation Wind Pressure Humidity
00:00 -2°C° 0 mm 2 mps 696 mmHg 96%
01:00 -2°C° 0.1 mm 3 mps 696 mmHg 91%
02:00 -2°C° 0.1 mm 4 mps 696 mmHg 86%
03:00 -2°C° 0.1 mm 4 mps 696 mmHg 81%
04:00 -3°C° 0 mm 4 mps 697 mmHg 83%
05:00 -3°C° 0 mm 4 mps 697 mmHg 86%
06:00 -4°C° 0 mm 3 mps 697 mmHg 88%
07:00 -2°C° 0 mm 3 mps 698 mmHg 83%
08:00 -1°C° 0 mm 3 mps 698 mmHg 79%
09:00 -1°C° 0 mm 4 mps 698 mmHg 74%
10:00 0°C° 0 mm 4 mps 699 mmHg 69%
11:00 +3°C° 0 mm 4 mps 699 mmHg 63%
12:00 +4°C° 0 mm 4 mps 699 mmHg 58%
13:00 +5°C° 0 mm 4 mps 699 mmHg 58%
14:00 +5°C° 0 mm 4 mps 698 mmHg 59%
15:00 +5°C° 0 mm 3 mps 698 mmHg 60%
16:00 +5°C° 0 mm 3 mps 698 mmHg 62%
17:00 +4°C° 0 mm 3 mps 699 mmHg 63%
18:00 +4°C° 0 mm 3 mps 699 mmHg 65%
19:00 +4°C° 0 mm 2 mps 700 mmHg 71%
20:00 +4°C° 0 mm 2 mps 700 mmHg 77%
21:00 +3°C° 0 mm 2 mps 700 mmHg 82%
22:00 +3°C° 0 mm 2 mps 700 mmHg 85%
23:00 +3°C° 0 mm 2 mps 700 mmHg 87%

30 July, Friday

Time Temperature Precipitation Wind Pressure Humidity
00:00 +3°C° 0 mm 1 mps 700 mmHg 89%
01:00 +2°C° 0 mm 1 mps 700 mmHg 91%
02:00 +1°C° 0 mm 1 mps 699 mmHg 94%
03:00 0°C° 0 mm 1 mps 699 mmHg 97%
04:00 0°C° 0 mm 1 mps 699 mmHg 96%
05:00 0°C° 0 mm 1 mps 699 mmHg 96%
06:00 -1°C° 0 mm 1 mps 699 mmHg 96%
07:00 +1°C° 0 mm 1 mps 700 mmHg 89%
08:00 +1°C° 0 mm 2 mps 700 mmHg 82%
09:00 +3°C° 0 mm 2 mps 701 mmHg 76%
10:00 +5°C° 0 mm 2 mps 701 mmHg 66%
11:00 +7°C° 0 mm 2 mps 701 mmHg 56%
12:00 +9°C° 0 mm 2 mps 701 mmHg 46%
13:00 +10°C° 0 mm 2 mps 700 mmHg 44%
14:00 +11°C° 0 mm 1 mps 700 mmHg 43%
15:00 +12°C° 0 mm 1 mps 699 mmHg 41%
16:00 +10°C° 0 mm 1 mps 699 mmHg 49%
17:00 +8°C° 0 mm 1 mps 699 mmHg 57%
18:00 +6°C° 0 mm 1 mps 699 mmHg 65%
19:00 +4°C° 0 mm 2 mps 699 mmHg 70%
20:00 +3°C° 0 mm 2 mps 699 mmHg 74%
21:00 +2°C° 0 mm 2 mps 700 mmHg 78%
22:00 +2°C° 0 mm 2 mps 700 mmHg 83%
23:00 +2°C° 0 mm 2 mps 700 mmHg 87%
Show more